Location: Unspecified
(0.0000°N, 0.0000°E)
Time: 05:16:10
(UTC+00:00)

Explorer 7 - Pass Details

Date: 04 October 2020
Orbit: 484 x 678 km, 50.3° (Epoch: 28 October)

Event Time Altitude Azimuth Distance (km) Brightness Sun altitude
Rises 18:29:00 0° 183° (S) 2,549 10.3 -10.1°
Reaches altitude 10° 18:32:20 10° 151° (SSE) 1,685 9.1 -10.9°
Maximum altitude 18:33:54 12° 127° (SE) 1,565 8.7 -11.3°
Enters shadow 18:34:22 12° 119° (ESE) 1,581 8.7 -11.4°
Drops below altitude 10° 18:35:28 10° 103° (ESE) 1,710 - -11.7°
Sets 18:38:54 0° 71° (ENE) 2,632 - -12.6°
